Terminal Aerodrome Forecast
Issued by NWS Duluth, MN

Home | Current Version | Previous Version | Text Only | Print | Product List | Glossary On
Versions: 1 2 3 4 5 6 7 8 9 10 11 12 13 14 15 16 17 18 19 20 21 22 23 24 25 26 27 28 29 30 31
312
FTUS43 KDLH 210930 AAC
TAFINL
TAF AMD
KINL 210930Z 2109/2206 26007G14KT P6SM OVC009
     FM211100 24003KT 1/2SM FG SCT002 OVC004
     FM211400 21005KT 2SM BR SCT004 OVC006
     FM211700 20006KT P6SM SCT250=

USA.gov is the U.S. government's official web portal to all federal, state and local government web resources and services.